Regional Weather Roundup
Issued by NWS

Home | Current Version | Previous Version | Graphics & Text | Print | Product List | Glossary On
Versions: 1 2 3 4 5 6 7 8 9 10 11 12 13 14 15 16 17 18 19 20 21 22 23 24 25 26 27 28 29 30 31 32 33 34 35 36 37 38 39 40 41 42 43 44 45 46 47 48 49 50
000
ASUS43 KIND 171809
RWRIN

WEATHER ROUNDUP FOR INDIANA
NATIONAL WEATHER SERVICE INDIANAPOLIS IN
100 PM EST TUE JAN 17 2017

NOTE: "FAIR" INDICATES FEW OR NO CLOUDS BELOW 12,000 FEET WITH NO
SIGNIFICANT WEATHER AND/OR OBSTRUCTIONS TO VISIBILITY.

* - STATION DOES NOT REPORT WEATHER SUCH AS PRECIPITATION OR FOG.

+ - STATION NOT QUALITY CONTROLLED BY THE NATIONAL WEATHER SERVICE.
    USE DATA WITH CAUTION...ESPECIALLY DEWPOINT AND RELATIVE
    HUMIDITY OBSERVATIONS.

INZ001>003-010>013-019-020-171900-
NORTHWEST INDIANA

CITY           SKY/WX    TMP DP  RH WIND       PRES   REMARKS
GARY /AIRPORT/ CLOUDY    41  37  87 W14       29.86
KNOX *+        CLOUDY    41  34  75 W10       29.85F VSB 3/4
LA PORTE +     CLOUDY    39  38  97 W8        29.86S
6HR MIN TEMP:  39; 6HR MAX TEMP:  46;

MICHIGAN CITY+ CLOUDY    39  39 100 SW8       29.85S
MONTICELLO +   CLOUDY    42  41  96 W14       29.89S FOG
6HR MIN TEMP:  42; 6HR MAX TEMP:  48;

RENSSELAER +     N/A     39  39 100 W14       29.89S FOG
VALPARAISO     CLOUDY    41  40  96 W14       29.86S
6HR MIN TEMP:  41; 6HR MAX TEMP:  46;


$$

LMZ046-743>745-171900-
SOUTHERN LAKE MICHIGAN

STATION/POSITION TIME  TEMP    WIND        PRES    WAVE
                       AIR SEA DIR/SP/G            HT
                 (UTC) (F)     (DEG/KT/KT) (MB)    (FT)
BURNS HARBOR     1740   37     240/ 10/ 12 1011.9S

$$

INZ004-005-014>016-021>024-171900-
NORTH CENTRAL INDIANA

CITY           SKY/WX    TMP DP  RH WIND       PRES   REMARKS
ELKHART        CLOUDY    41  39  93 W12       29.84R FOG
GOSHEN         CLOUDY    43  39  86 W15G22    29.83S
6HR MIN TEMP:  43; 6HR MAX TEMP:  50;

LOGANSPORT +   CLOUDY    43  43 100 W16G24    29.89S FOG
PERU/GRISSOM   CLOUDY    45  45 100 W15       29.86S
6HR MIN TEMP:  45; 6HR MAX TEMP:  53;

ROCHESTER +    CLOUDY    45  45 100 W14       29.87S FOG
SOUTH BEND     CLOUDY    41  40  96 W12       29.84S
6HR MIN TEMP:  40; 6HR MAX TEMP:  50;

WARSAW +       CLOUDY    43  37  81 W13G20    29.85R FOG

$$

INZ006>009-017-018-025>027-171900-
NORTHEAST INDIANA

CITY           SKY/WX    TMP DP  RH WIND       PRES   REMARKS
ANGOLA *+      CLOUDY    43  36  75 W14       29.80S
AUBURN +       CLOUDY    45  43  93 SW10G18   29.83S
FORT WAYNE     PTSUNNY   50  44  80 W17       29.83F
6HR MIN TEMP:  48; 6HR MAX TEMP:  52; 6HR PCP:  0.05;

HUNTINGTON +   CLOUDY    48  44  86 W13       29.85S
6HR MIN TEMP:  46; 6HR MAX TEMP:  53; 6HR PCP:  0.02;

KENDALLVILLE + FOG       43  43 100 W16       29.81S VSB 1/2

$$

INZ028-029-035-036-043>045-051>053-171900-
WEST CENTRAL INDIANA

CITY           SKY/WX    TMP DP  RH WIND       PRES   REMARKS
CRAWFORDSVL +  CLOUDY    42  42 100 SW12G17   29.92S FOG
6HR MIN TEMP:  42; 6HR MAX TEMP:  50;

GREENCASTLE +  CLOUDY    45  41  87 W6        29.94S
LAFAYETTE      CLOUDY    43  42  97 W13       29.91S
6HR MIN TEMP:  43; 6HR MAX TEMP:  47;

TERRE HAUTE    CLOUDY    46  40  79 W12       29.96S
6HR MIN TEMP:  46; 6HR MAX TEMP:  52;


$$

INZ030>032-037>040-046>048-054>057-064-065-171900-
CENTRAL INDIANA

CITY           SKY/WX    TMP DP  RH WIND       PRES   REMARKS
ANDERSON       CLOUDY    48  43  81 W12       29.90S
CP ATTERBURY + CLOUDY    50  43  76 W13G20    29.94R
COLUMBUS       CLOUDY    52  48  87 W12       29.93S
FISHERS *+     CLOUDY    45  43  93 W14       29.92S
FRANKFORT +    CLOUDY    46  45  95 W18G24    29.92S FOG
6HR MIN TEMP:  46; 6HR MAX TEMP:  53;

GREENWOOD *+   CLOUDY    48  44  88 W13G18    29.94R
6HR MIN TEMP:  48; 6HR MAX TEMP:  56;

INDIANAPOLIS   CLOUDY    46  40  79 W17       29.92F
6HR MIN TEMP:  46; 6HR MAX TEMP:  53; 6HR PCP: TRACE;

-EAGLE CREEK   CLOUDY    46  40  79 W10       29.92S
6HR MIN TEMP:  46; 6HR MAX TEMP:  54;

KOKOMO +       CLOUDY    45  44  97 W16       29.89S FOG
6HR MIN TEMP:  45; 6HR MAX TEMP:  54;

MARION +       CLOUDY    46  43  87 W16       29.89S
MT COMFORT *+  CLOUDY    45  43  93 W15       29.92S
SHELBYVILLE    CLOUDY    50  44  80 W15       29.91S
6HR MIN TEMP:  50; 6HR MAX TEMP:  58; 6HR PCP:  0.04;

ZIONSVILLE +   CLOUDY    45  42  88 SW14      29.91F
6HR MIN TEMP:  44; 6HR MAX TEMP:  53;


$$

INZ033-034-041-042-049-050-058-059-171900-
EAST CENTRAL INDIANA

CITY           SKY/WX    TMP DP  RH WIND       PRES   REMARKS
MUNCIE         CLOUDY    49  42  77 W16G30    29.88S
6HR MIN TEMP:  49; 6HR MAX TEMP:  58; 6HR PCP:  0.02;


$$

INZ060-061-067>069-081>083-085>088-171900-
SOUTHWEST INDIANA

CITY           SKY/WX    TMP DP  RH WIND       PRES   REMARKS
EVANSVILLE     CLOUDY    51  42  71 W18       30.02F
6HR MIN TEMP:  50; 6HR MAX TEMP:  56;

HUNTINGBURG *+ CLOUDY    50  44  80 W15       29.99F
6HR MIN TEMP:  50; 6HR MAX TEMP:  58;

WASHINGTON +   CLOUDY    46  41  81 W13G18    29.99F
6HR MIN TEMP:  46; 6HR MAX TEMP:  53;


$$

INZ062-063-066-070>080-084-089>092-171900-
SOUTH CENTRAL AND SOUTHEAST INDIANA

CITY           SKY/WX    TMP DP  RH WIND       PRES   REMARKS
BLOOMINGTON    CLOUDY    46  39  76 W13       29.96S
6HR MIN TEMP:  46; 6HR MAX TEMP:  54;

MADISON *+     CLOUDY    55  48  76 SW12      29.96S
NORTH VERNON + CLOUDY   N/A N/A N/A SW13G24   29.94S
SEYMOUR +      CLOUDY    54  46  76 SW14      29.95S

$$





USA.gov is the U.S. government's official web portal to all federal, state and local government web resources and services.